Weather History for KMHT - March, 2013

Change the Weather History Date:

Friday, March 8, 2013

  Actual Average Record
Temperature  
Mean Temperature 36 °F -  
Max Temperature 45 °F 42 °F 68 °F (2012)
Min Temperature 28 °F 25 °F 1 °F (1989)
Degree Days  
Heating Degree Days 28    
Cooling Degree Days 0    
Moisture  
Dew Point 25 °F    
Average Humidity 73    
Maximum Humidity 93    
Minimum Humidity 35    
Precipitation  
Precipitation 0.12 in 0.12 in 1.10 in (2008)
Month to date precipitation 0.81  
Year to date precipitation 6.61  
Snow  
Snow 0.00 in - - ()
Month to date snowfall  
Since 1 July snowfall  
Snow Depth 7.00 in    
Sea Level Pressure  
Sea Level Pressure 30.05 in    
Wind  
Wind Speed 13 mph (North)    
Max Wind Speed 17 mph    
Max Gust Speed 24 mph    
Visibility 4 miles    
Events Fog , Snow    
T = Trace of Precipitation, MM = Missing Value Source: NWS Daily Summary

Daily Weather History Graph

Daily Weather History Graph

Search for Another Location

Airport or City:

Trip Planner

Search our weather history database for the weather conditions in past years. The results will help you decide how hot, cold, wet, or windy it might be!

Date:

Astronomy

Mar. 08, 2013 Rise Set
Actual Time 6:09 AM EST 5:43 PM EST
Civil Twilight 5:41 AM EST 6:12 PM EST
Nautical Twilight 5:08 AM EST 6:45 PM EST
Astronomical Twilight 4:35 AM EST 7:18 PM EST
Moon 3:56 AM EST (3/8) 2:32 PM EST (3/8)
Length of Visible Light 12h 31m
Length of Day
11h 34m
Waning Crescent, 12% of the Moon is Illuminated
Mar 8
Waning Crescent
Mar 11
New
Mar 19
First Quarter
Mar 27
Full
Apr 3
Last Quarter

Hourly Weather History & Observations

Time (EST) Temp. Windchill Dew Point Humidity Pressure Visibility Wind Dir Wind Speed Gust Speed Precip Events Conditions
12:53 AM 30.0 °F 20.0 °F 27.0 °F 88% 30.07 in 1.5 mi North 12.7 mph - 0.00 in Snow Light Snow
1:53 AM 30.0 °F 18.7 °F 27.0 °F 88% 30.05 in 1.5 mi North 16.1 mph - 0.01 in Snow Light Snow
2:29 AM 30.2 °F 19.3 °F 26.6 °F 86% 29.98 in 1.2 mi North 15.0 mph - 0.00 in Snow Light Snow
2:53 AM 30.0 °F 19.1 °F 27.0 °F 88% 30.03 in 1.0 mi North 15.0 mph - 0.00 in Snow Light Snow
3:26 AM 30.2 °F 20.2 °F 26.6 °F 86% 29.98 in 0.8 mi North 12.7 mph - 0.00 in Snow Light Snow
3:53 AM 30.0 °F 20.0 °F 27.0 °F 88% 30.03 in 1.0 mi North 12.7 mph - 0.01 in Snow Light Snow
4:31 AM 30.2 °F 19.8 °F 26.6 °F 86% 29.98 in 0.8 mi North 13.8 mph - 0.00 in Snow Light Snow
4:53 AM 30.0 °F 19.1 °F 27.0 °F 88% 30.03 in 0.5 mi North 15.0 mph - 0.01 in Fog , Snow Snow
5:53 AM 28.9 °F 17.7 °F 27.0 °F 92% 30.03 in 0.5 mi North 15.0 mph - 0.02 in Fog , Snow Snow
6:10 AM 28.4 °F 16.6 °F 26.6 °F 93% 29.98 in 0.8 mi North 16.1 mph - 0.01 in Snow Light Snow
6:22 AM 30.2 °F 19.3 °F 26.6 °F 86% 29.98 in 0.8 mi North 15.0 mph - 0.01 in Snow Light Snow
6:27 AM 30.2 °F 20.2 °F 26.6 °F 86% 29.99 in 1.0 mi North 12.7 mph - 0.01 in Snow Light Snow
6:42 AM 30.2 °F 19.3 °F 26.6 °F 86% 29.99 in 0.5 mi North 15.0 mph - 0.01 in Fog , Snow Snow
6:53 AM 30.2 °F 19.8 °F 26.6 °F 86% 29.99 in 0.2 mi North 13.8 mph - N/A Fog , Snow Snow
7:11 AM 30.2 °F 19.8 °F 26.6 °F 86% 30.00 in 0.5 mi North 13.8 mph - 0.01 in Fog , Snow Snow
7:44 AM 30.2 °F 20.2 °F 26.6 °F 86% 30.00 in 0.5 mi North 12.7 mph - 0.02 in Snow Light Snow
7:53 AM 30.0 °F 20.0 °F 27.0 °F 88% 30.06 in 0.5 mi North 12.7 mph - 0.03 in Snow Light Snow
8:26 AM 30.2 °F 20.2 °F 26.6 °F 86% 30.00 in 0.5 mi North 12.7 mph - 0.01 in Fog , Snow Snow
8:53 AM 30.0 °F 19.5 °F 27.0 °F 88% 30.06 in 0.5 mi North 13.8 mph - 0.03 in Snow Light Snow
9:07 AM 30.2 °F 19.8 °F 26.6 °F 86% 30.00 in 0.8 mi North 13.8 mph - 0.00 in Snow Light Snow
9:25 AM 30.2 °F 20.8 °F 26.6 °F 86% 30.01 in 1.0 mi North 11.5 mph - 0.00 in Snow Light Snow
9:30 AM 30.2 °F 20.8 °F 26.6 °F 86% 30.01 in 1.2 mi NNE 11.5 mph - 0.00 in Snow Light Snow
9:45 AM 32.0 °F 22.1 °F 26.6 °F 80% 30.01 in 1.0 mi North 13.8 mph - 0.00 in Snow Light Snow
9:53 AM 32.0 °F 22.1 °F 26.1 °F 79% 30.07 in 1.5 mi North 13.8 mph - 0.00 in Snow Light Snow
9:57 AM 32.0 °F 23.0 °F 26.6 °F 80% 30.01 in 2.0 mi North 11.5 mph - 0.00 in Snow Light Snow
10:00 AM 32.0 °F 23.0 °F 26.6 °F 80% 30.01 in 3.0 mi North 11.5 mph - 0.00 in Snow Light Snow
10:01 AM 32.0 °F 23.0 °F 24.8 °F 75% 30.01 in 7.0 mi North 11.5 mph - 0.00 in Snow Light Snow
10:53 AM 35.1 °F 24.8 °F 21.9 °F 59% 30.08 in 9.0 mi North 17.3 mph 21.9 mph 0.00 in Snow Light Snow
11:28 AM 35.6 °F 25.5 °F 24.8 °F 65% 30.03 in 2.0 mi NNE 17.3 mph 24.2 mph 0.01 in Snow Light Snow
11:30 AM 35.6 °F 27.1 °F 24.8 °F 65% 30.03 in 7.0 mi NNE 12.7 mph 24.2 mph 0.01 in Snow Light Snow
11:33 AM 35.6 °F 26.6 °F 24.8 °F 65% 30.03 in 1.0 mi NNE 13.8 mph 24.2 mph 0.01 in Snow Light Snow
11:39 AM 35.6 °F 28.6 °F 24.8 °F 65% 30.02 in 7.0 mi North 9.2 mph - 0.01 in   Overcast
11:53 AM 37.0 °F 28.9 °F 24.1 °F 59% 30.08 in 7.0 mi North 12.7 mph 20.7 mph 0.01 in   Mostly Cloudy
12:53 PM 39.0 °F 31.8 °F 23.0 °F 53% 30.08 in 10.0 mi North 11.5 mph - N/A   Overcast
1:53 PM 42.1 °F 36.1 °F 21.0 °F 43% 30.08 in 10.0 mi North 10.4 mph 21.9 mph N/A   Overcast
2:53 PM 43.0 °F 37.7 °F 19.9 °F 40% 30.08 in 10.0 mi North 9.2 mph - N/A   Overcast
3:53 PM 45.0 °F 40.6 °F 19.0 °F 36% 30.10 in 10.0 mi NNE 8.1 mph - N/A   Mostly Cloudy
4:53 PM 43.0 °F 37.2 °F 21.0 °F 42% 30.12 in 10.0 mi North 10.4 mph - N/A   Mostly Cloudy
5:53 PM 44.1 °F 38.1 °F 18.0 °F 35% 30.15 in 10.0 mi North 11.5 mph - N/A   Mostly Cloudy
6:53 PM 39.9 °F 35.1 °F 21.0 °F 47% 30.17 in 10.0 mi NNW 6.9 mph - N/A   Partly Cloudy
7:53 PM 37.0 °F 32.4 °F 23.0 °F 57% 30.18 in 10.0 mi NNW 5.8 mph - N/A   Clear
8:53 PM 36.0 °F 31.1 °F 21.0 °F 55% 30.20 in 10.0 mi NW 5.8 mph - N/A   Clear
9:53 PM 33.1 °F 26.9 °F 21.0 °F 61% 30.22 in 10.0 mi NNW 6.9 mph - N/A   Clear
10:53 PM 30.9 °F 23.5 °F 19.9 °F 64% 30.22 in 10.0 mi North 8.1 mph - N/A   Clear
11:53 PM 34.0 °F 27.2 °F 19.0 °F 54% 30.22 in 10.0 mi NNW 8.1 mph - N/A   Clear